When you browse on this site, cookies collect data to enhance your experience and personalize the content and advertising you see.
Visit our Privacy Policy to learn more. By continuing to use the site, you agree to this use of cookies and data.
  • In Schweiz
  • Länderverzeichnis
  • Für 7 Tage
  • Wassertemperatur
  • Wetterkarte
  • Widgets
  • user-avatar
    Anmelden

    Stündliche Wetter Salzburg

    Heute, 15 September, Sonntag

    Zeit Temperatur Niederschläge Wind Luftdruck Luftfeuchtigkeit
    00:00 +10°C° 0 mm 1 m/S 635 mmHg 95%
    01:00 +10°C° 0 mm 1 m/S 635 mmHg 95%
    02:00 +10°C° 0 mm 1 m/S 634 mmHg 95%
    03:00 +9°C° 0 mm 1 m/S 634 mmHg 94%
    04:00 +9°C° 0 mm 1 m/S 634 mmHg 93%
    05:00 +10°C° 0 mm 1 m/S 634 mmHg 91%
    06:00 +10°C° 0 mm 1 m/S 634 mmHg 89%
    07:00 +11°C° 0 mm 1 m/S 634 mmHg 86%
    08:00 +14°C° 0 mm 1 m/S 635 mmHg 75%
    09:00 +18°C° 0 mm 1 m/S 636 mmHg 64%
    10:00 +19°C° 0 mm 0 m/S 637 mmHg 54%
    11:00 +21°C° 0 mm 1 m/S 637 mmHg 51%
    12:00 +22°C° 0 mm 1 m/S 636 mmHg 48%
    13:00 +22°C° 0 mm 1 m/S 636 mmHg 45%
    14:00 +22°C° 0 mm 1 m/S 636 mmHg 49%
    15:00 +21°C° 0 mm 1 m/S 635 mmHg 54%
    16:00 +21°C° 0 mm 1 m/S 635 mmHg 59%
    17:00 +18°C° 0 mm 1 m/S 634 mmHg 70%
    18:00 +15°C° 0 mm 1 m/S 633 mmHg 81%
    19:00 +11°C° 0 mm 0 m/S 632 mmHg 92%
    20:00 +11°C° 0 mm 0 m/S 632 mmHg 92%
    21:00 +12°C° 0 mm 1 m/S 632 mmHg 92%
    22:00 +11°C° 0 mm 1 m/S 632 mmHg 92%
    23:00 +11°C° 0 mm 1 m/S 632 mmHg 92%

    Morgen, 16 September, Montag

    Zeit Temperatur Niederschläge Wind Luftdruck Luftfeuchtigkeit
    00:00 +11°C° 0 mm 1 m/S 631 mmHg 93%
    01:00 +10°C° 0 mm 1 m/S 631 mmHg 93%
    02:00 +10°C° 0 mm 1 m/S 631 mmHg 93%
    03:00 +10°C° 0 mm 1 m/S 631 mmHg 93%
    04:00 +10°C° 0 mm 1 m/S 630 mmHg 93%
    05:00 +10°C° 0 mm 1 m/S 630 mmHg 92%
    06:00 +11°C° 0 mm 1 m/S 630 mmHg 91%
    07:00 +12°C° 0 mm 1 m/S 630 mmHg 90%
    08:00 +14°C° 0 mm 1 m/S 631 mmHg 80%
    09:00 +18°C° 0 mm 1 m/S 632 mmHg 70%
    10:00 +20°C° 0 mm 1 m/S 633 mmHg 60%
    11:00 +20°C° 0.2 mm 1 m/S 633 mmHg 59%
    12:00 +21°C° 0.2 mm 1 m/S 633 mmHg 57%
    13:00 +21°C° 0.2 mm 1 m/S 632 mmHg 56%
    14:00 +20°C° 0.4 mm 1 m/S 632 mmHg 65%
    15:00 +19°C° 0.4 mm 1 m/S 631 mmHg 73%
    16:00 +18°C° 0.4 mm 1 m/S 630 mmHg 82%
    17:00 +15°C° 0.3 mm 1 m/S 630 mmHg 85%
    18:00 +14°C° 0.3 mm 1 m/S 629 mmHg 89%
    19:00 +11°C° 0.3 mm 0 m/S 629 mmHg 92%
    20:00 +12°C° 0.1 mm 1 m/S 629 mmHg 92%
    21:00 +11°C° 0.1 mm 1 m/S 629 mmHg 93%
    22:00 +10°C° 0.1 mm 1 m/S 629 mmHg 93%
    23:00 +10°C° 0.1 mm 1 m/S 628 mmHg 94%

    übermorgen, 17 September, Dienstag

    Zeit Temperatur Niederschläge Wind Luftdruck Luftfeuchtigkeit
    00:00 +10°C° 0.1 mm 1 m/S 628 mmHg 95%
    01:00 +9°C° 0.1 mm 1 m/S 628 mmHg 95%
    02:00 +9°C° 0 mm 1 m/S 628 mmHg 95%
    03:00 +9°C° 0 mm 1 m/S 628 mmHg 96%
    04:00 +9°C° 0 mm 1 m/S 628 mmHg 96%
    05:00 +10°C° 0.1 mm 1 m/S 628 mmHg 96%
    06:00 +10°C° 0.1 mm 1 m/S 628 mmHg 96%
    07:00 +9°C° 0.1 mm 0 m/S 628 mmHg 96%
    08:00 +11°C° 0.2 mm 1 m/S 628 mmHg 93%
    09:00 +12°C° 0.2 mm 1 m/S 629 mmHg 89%
    10:00 +13°C° 0.2 mm 1 m/S 629 mmHg 86%
    11:00 +14°C° 0.3 mm 1 m/S 629 mmHg 82%
    12:00 +14°C° 0.3 mm 2 m/S 629 mmHg 78%
    13:00 +15°C° 0.3 mm 2 m/S 629 mmHg 74%
    14:00 +15°C° 0.2 mm 2 m/S 629 mmHg 75%
    15:00 +14°C° 0.2 mm 2 m/S 629 mmHg 75%
    16:00 +14°C° 0.2 mm 2 m/S 628 mmHg 76%
    17:00 +12°C° 0.1 mm 2 m/S 628 mmHg 83%
    18:00 +11°C° 0.1 mm 1 m/S 628 mmHg 90%
    19:00 +9°C° 0.1 mm 1 m/S 627 mmHg 97%
    20:00 +9°C° 0.1 mm 1 m/S 627 mmHg 97%
    21:00 +9°C° 0.1 mm 1 m/S 628 mmHg 97%
    22:00 +9°C° 0.1 mm 1 m/S 628 mmHg 97%
    23:00 +8°C° 0 mm 1 m/S 628 mmHg 97%

    18 September, Mittwoch

    Zeit Temperatur Niederschläge Wind Luftdruck Luftfeuchtigkeit
    00:00 +7°C° 0 mm 1 m/S 628 mmHg 97%
    01:00 +7°C° 0 mm 1 m/S 628 mmHg 96%
    02:00 +6°C° 0 mm 1 m/S 627 mmHg 97%
    03:00 +5°C° 0 mm 1 m/S 627 mmHg 97%
    04:00 +4°C° 0 mm 1 m/S 627 mmHg 97%
    05:00 +4°C° 0 mm 1 m/S 627 mmHg 97%
    06:00 +4°C° 0 mm 1 m/S 627 mmHg 96%
    07:00 +4°C° 0 mm 1 m/S 627 mmHg 96%
    08:00 +5°C° 0 mm 1 m/S 628 mmHg 92%
    09:00 +6°C° 0 mm 1 m/S 628 mmHg 88%
    10:00 +7°C° 0 mm 1 m/S 629 mmHg 84%
    11:00 +7°C° 0 mm 1 m/S 629 mmHg 82%
    12:00 +7°C° 0 mm 1 m/S 628 mmHg 79%
    13:00 +8°C° 0 mm 1 m/S 628 mmHg 76%
    14:00 +8°C° 0 mm 1 m/S 628 mmHg 76%
    15:00 +7°C° 0 mm 1 m/S 628 mmHg 76%
    16:00 +7°C° 0 mm 1 m/S 628 mmHg 76%
    17:00 +6°C° 0 mm 1 m/S 628 mmHg 79%
    18:00 +5°C° 0 mm 1 m/S 628 mmHg 82%
    19:00 +5°C° 0 mm 1 m/S 628 mmHg 85%
    20:00 +4°C° 0 mm 1 m/S 628 mmHg 86%
    21:00 +4°C° 0 mm 1 m/S 628 mmHg 86%
    22:00 +3°C° 0 mm 1 m/S 629 mmHg 87%
    23:00 +3°C° 0 mm 1 m/S 629 mmHg 86%

    19 September, Donnerstag

    Zeit Temperatur Niederschläge Wind Luftdruck Luftfeuchtigkeit
    00:00 +2°C° 0 mm 1 m/S 629 mmHg 86%
    01:00 +2°C° 0 mm 1 m/S 629 mmHg 85%
    02:00 0°C° 0 mm 0 m/S 628 mmHg 86%
    03:00 0°C° 0 mm 0 m/S 628 mmHg 87%
    04:00 -1°C° 0 mm 0 m/S 628 mmHg 87%
    05:00 -1°C° 0 mm 0 m/S 628 mmHg 85%
    06:00 0°C° 0 mm 0 m/S 628 mmHg 83%
    07:00 0°C° 0 mm 0 m/S 629 mmHg 81%
    08:00 +3°C° 0 mm 1 m/S 630 mmHg 71%
    09:00 +5°C° 0 mm 1 m/S 630 mmHg 61%
    10:00 +7°C° 0 mm 1 m/S 631 mmHg 51%
    11:00 +7°C° 0 mm 2 m/S 631 mmHg 49%
    12:00 +7°C° 0 mm 2 m/S 631 mmHg 47%
    13:00 +8°C° 0 mm 2 m/S 631 mmHg 45%
    14:00 +7°C° 0 mm 2 m/S 631 mmHg 48%
    15:00 +7°C° 0 mm 2 m/S 631 mmHg 51%
    16:00 +7°C° 0 mm 2 m/S 630 mmHg 54%
    17:00 +4°C° 0 mm 2 m/S 630 mmHg 66%
    18:00 +3°C° 0 mm 1 m/S 630 mmHg 78%
    19:00 +1°C° 0 mm 1 m/S 630 mmHg 90%
    20:00 0°C° 0 mm 1 m/S 630 mmHg 90%
    21:00 0°C° 0 mm 1 m/S 630 mmHg 91%
    22:00 -1°C° 0 mm 0 m/S 631 mmHg 92%
    23:00 -2°C° 0 mm 0 m/S 631 mmHg 92%

    20 September, Freitag

    Zeit Temperatur Niederschläge Wind Luftdruck Luftfeuchtigkeit
    00:00 -2°C° 0 mm 0 m/S 631 mmHg 92%
    01:00 -3°C° 0 mm 0 m/S 631 mmHg 93%
    02:00 -2°C° 0 mm 1 m/S 630 mmHg 92%
    03:00 -2°C° 0 mm 1 m/S 630 mmHg 92%
    04:00 -2°C° 0 mm 1 m/S 630 mmHg 92%
    05:00 -2°C° 0 mm 1 m/S 630 mmHg 88%
    06:00 -1°C° 0 mm 1 m/S 631 mmHg 84%
    07:00 0°C° 0 mm 1 m/S 631 mmHg 80%
    08:00 +3°C° 0 mm 1 m/S 632 mmHg 67%
    09:00 +5°C° 0 mm 1 m/S 633 mmHg 55%
    10:00 +8°C° 0 mm 1 m/S 634 mmHg 42%
    11:00 +9°C° 0 mm 1 m/S 634 mmHg 39%
    12:00 +11°C° 0 mm 1 m/S 634 mmHg 36%
    13:00 +12°C° 0 mm 1 m/S 634 mmHg 33%
    14:00 +11°C° 0 mm 1 m/S 634 mmHg 37%
    15:00 +11°C° 0 mm 1 m/S 633 mmHg 41%
    16:00 +10°C° 0 mm 1 m/S 633 mmHg 45%
    17:00 +8°C° 0 mm 1 m/S 632 mmHg 57%
    18:00 +5°C° 0 mm 1 m/S 632 mmHg 70%
    19:00 +2°C° 0 mm 1 m/S 631 mmHg 82%
    20:00 +2°C° 0 mm 1 m/S 631 mmHg 80%
    21:00 +2°C° 0 mm 1 m/S 631 mmHg 79%
    22:00 +2°C° 0 mm 1 m/S 631 mmHg 77%
    23:00 +2°C° 0 mm 1 m/S 631 mmHg 75%
    Mehr zeigen